Weather History for Moffett NAS, CA

Change the Weather History Date:

Monday, September 12, 2011

  Actual Average Record
Temperature  
Mean Temperature 69 °F 68 °F  
Max Temperature 74 °F 78 °F 100 °F (1979)
Min Temperature 63 °F 58 °F 41 °F (1946)
Degree Days  
Heating Degree Days 0    
Month to date heating degree days 0  
Since 1 July heating degree days 10  
Cooling Degree Days 4    
Month to date cooling degree days 46  
Year to date cooling degree days 281  
Growing Degree Days 18 (Base 50)    
Moisture  
Dew Point 58 °F    
Average Humidity 68    
Maximum Humidity 78    
Minimum Humidity 57    
Precipitation  
Precipitation 0.00 in 0.01 in 0.14 in (1963)
Month to date precipitation T 0.04  
Year to date precipitation 9.50 9.70  
Since 1 July precipitation T 0.07  
Sea Level Pressure  
Sea Level Pressure 30.07 in    
Wind  
Wind Speed 7 mph (North)    
Max Wind Speed 17 mph    
Max Gust Speed 21 mph    
Visibility 10 miles    
Events      
T = Trace of Precipitation, MM = Missing Value Source: NWS Daily Summary

Daily Weather History Graph

Daily Weather History Graph

Search for Another Location

Airport:

Trip Planner

Search our weather history database for the weather conditions in past years. The results will help you decide how hot, cold, wet, or windy it might be!

Date:

Astronomy

Sep. 12, 2011 Rise Set
Actual Time 6:47 AM PDT 7:20 PM PDT
Civil Twilight 6:21 AM PDT 7:47 PM PDT
Nautical Twilight 5:50 AM PDT 8:17 PM PDT
Astronomical Twilight 5:18 AM PDT 8:49 PM PDT
Moon 7:14 PM PDT (9/12) 7:07 AM PDT (9/12)
Length of Visible Light 13h 25m
Length of Day
12h 33m
Full, 100% of the Moon is Illuminated
Sep 12
Full
Sep 20
Last Quarter
Sep 27
New
Oct 3
First Quarter
Oct 11
Full

Hourly Weather History & Observations

Time (PDT) Temp. Dew Point Humidity Pressure Visibility Wind Dir Wind Speed Gust Speed Precip Events Conditions
12:42 AM 64.4 °F 57.2 °F 77% 30.03 in 10.0 mi NNE 5.8 mph - N/A   Mostly Cloudy
12:56 AM 64.0 °F 57.9 °F 80% 30.04 in 10.0 mi NNE 5.8 mph - N/A   Overcast
1:07 AM 64.4 °F 57.2 °F 77% 30.03 in 10.0 mi NNE 6.9 mph - N/A   Overcast
1:56 AM 64.0 °F 57.9 °F 80% 30.06 in 10.0 mi NNE 4.6 mph - N/A   Overcast
2:11 AM 64.4 °F 57.2 °F 77% 30.06 in 10.0 mi NNE 4.6 mph - N/A   Overcast
2:54 AM 64.4 °F 57.2 °F 77% 30.06 in 10.0 mi Calm Calm - N/A   Overcast
2:56 AM 64.0 °F 57.9 °F 80% 30.06 in 10.0 mi Calm Calm - N/A   Overcast
3:48 AM 64.4 °F 57.2 °F 77% 30.05 in 10.0 mi Calm Calm - N/A   Overcast
3:56 AM 64.9 °F 57.9 °F 78% 30.06 in 10.0 mi NNE 3.5 mph - N/A   Overcast
4:56 AM 64.0 °F 57.9 °F 80% 30.06 in 10.0 mi NNE 3.5 mph - N/A   Overcast
5:56 AM 64.0 °F 57.9 °F 80% 30.07 in 10.0 mi Calm Calm - N/A   Overcast
6:56 AM 64.9 °F 57.9 °F 78% 30.08 in 10.0 mi NNW 3.5 mph - N/A   Overcast
7:56 AM 64.9 °F 57.9 °F 78% 30.09 in 10.0 mi Calm Calm - N/A   Overcast
8:56 AM 66.0 °F 57.9 °F 75% 30.10 in 10.0 mi Calm Calm - N/A   Overcast
9:32 AM 66.2 °F 57.2 °F 73% 30.09 in 10.0 mi Calm Calm - N/A   Overcast
9:56 AM 68.0 °F 57.9 °F 70% 30.10 in 10.0 mi North 4.6 mph - N/A   Overcast
10:16 AM 69.8 °F 59.0 °F 68% 30.09 in 10.0 mi NNE 3.5 mph - N/A   Scattered Clouds
10:56 AM 70.0 °F 59.0 °F 68% 30.10 in 10.0 mi North 6.9 mph - N/A   Clear
11:56 AM 72.0 °F 59.0 °F 64% 30.10 in 10.0 mi North 9.2 mph - N/A   Clear
12:56 PM 72.0 °F 59.0 °F 64% 30.09 in 10.0 mi North 13.8 mph - N/A   Clear
1:56 PM 72.0 °F 57.9 °F 61% 30.08 in 10.0 mi NNW 12.7 mph - N/A   Clear
2:56 PM 73.9 °F 57.9 °F 57% 30.06 in 10.0 mi North 13.8 mph - N/A   Clear
3:56 PM 73.0 °F 57.0 °F 57% 30.05 in 10.0 mi NNW 13.8 mph - N/A   Clear
4:56 PM 72.0 °F 57.9 °F 61% 30.04 in 10.0 mi NNW 13.8 mph - N/A   Clear
5:56 PM 70.0 °F 57.9 °F 65% 30.06 in 10.0 mi NNW 15.0 mph - N/A   Clear
6:56 PM 69.1 °F 59.0 °F 70% 30.06 in 10.0 mi NNW 9.2 mph - N/A   Clear
7:56 PM 66.9 °F 57.9 °F 73% 30.07 in 10.0 mi NNW 10.4 mph - N/A   Clear
8:56 PM 66.0 °F 55.9 °F 70% 30.09 in 10.0 mi NNW 9.2 mph - N/A   Clear
9:56 PM 64.9 °F 55.9 °F 73% 30.10 in 10.0 mi NNW 10.4 mph - N/A   Clear
10:56 PM 64.0 °F 55.9 °F 75% 30.09 in 10.0 mi NNW 5.8 mph - N/A   Clear
11:56 PM 63.0 °F 55.9 °F 78% 30.09 in 10.0 mi NNW 4.6 mph - N/A   Clear